Content
SEND FEEDBACK

Daily
Averages
Monthly
Summary
United States of America

FORESTDALE, MASSACHUSETTS


Home > North America > United States > Massachusetts
Elevation: 131 feet     Latitude: 41 39N     Longitude: 070 31W

WEATHER
 
SELECT A DAY
Number of Records: 275,509;   Date Range: 1/1/95 - 9/29/14
 
SHARE

PRINT THIS DATA

[ ← Previous Day ]
WEATHER ALMANAC - JANUARY 31, 2013
[ Next Day → ]
[ °C ]   °F
Weather ElementAverageHighLow
Temperature47.5 °F57.2 °F (12:35 am)32 °F (10:55 pm)
Dewpoint37.8 °F57.2 °F (8:15 am)10.4 °F (11:35 pm)
Humidity70.9 %100 % (7:35 am)38 % (9:55 pm)
Barometer29.34 in29.62 in (11:35 pm)29.09 in (8:55 am)
Wind Speed26.8 mph38 mph (7:55 am)
Wind Gust57.5 mph (7:55 am)
Weather ElementAverage
Visibility7.9 mi
Wind DirectionSW (230.4 °)

Weather ElementTotal
Precipitation0.19 in
Heating Degree Days20.4 (Base 65)
Averaged from 71 records on January 31, 2013
WEATHER CONDITIONS BREAKOUT
WIND DIRECTION BREAKOUT
WEATHER BY HOUR - JANUARY 31, 2013
[ °C ]   °F
Local TimeTemperatureDewpointHumidityBarometerVisibilityWind DirectionWind SpeedGust SpeedPrecipitationEventsConditions
12:35 AM57.2 °F55.4 °F94 %29.54 in7.0 miSSW (200°)23.0 mph31.1 mph
12:55 AM57.2 °F53.6 °F88 %29.52 in7.0 miSSW (200°)25.3 mph38.0 mph
1:15 AM57.2 °F53.6 °F88 %29.51 in7.0 miSSW (200°)27.6 mph41.4 mph
1:35 AM57.2 °F53.6 °F88 %29.49 in7.0 miSSW (200°)28.8 mph42.6 mph
1:55 AM57.2 °F55.4 °F94 %29.46 in7.0 miSouth (190°)32.2 mph44.9 mph
2:15 AM57.2 °F53.6 °F88 %29.44 in7.0 miSSW (200°)29.9 mph44.9 mph
2:35 AM57.2 °F53.6 °F88 %29.43 in7.0 miSouth (190°)28.8 mph41.4 mph
2:55 AM57.2 °F53.6 °F88 %29.40 in7.0 miSouth (190°)27.6 mph38.0 mph
3:15 AM57.2 °F53.6 °F88 %29.38 in6.0 miSouth (180°)28.8 mph40.3 mphMist
3:35 AM57.2 °F53.6 °F88 %29.36 in6.0 miSouth (190°)28.8 mph40.3 mphMist
3:55 AM55.4 °F53.6 °F94 %29.34 in5.0 miSouth (190°)28.8 mph38.0 mphMist
4:15 AM55.4 °F53.6 °F94 %29.32 in5.0 miSouth (190°)27.6 mph41.4 mphMist
4:35 AM55.4 °F51.8 °F88 %29.29 in5.0 miSouth (180°)31.1 mph49.5 mphMist
4:55 AM55.4 °F51.8 °F88 %29.28 in5.0 miSouth (180°)31.1 mph49.5 mphMist
5:15 AM55.4 °F51.8 °F88 %29.27 in5.0 miSouth (190°)28.8 mph42.6 mphMist
5:35 AM55.4 °F53.6 °F94 %29.25 in4.0 miSouth (190°)28.8 mph40.3 mphRainLight Rain
5:55 AM55.4 °F53.6 °F94 %29.24 in3.0 miSouth (190°)31.1 mph41.4 mphMist
6:15 AM55.4 °F53.6 °F94 %29.21 in4.0 miSouth (180°)31.1 mph43.7 mphMist
6:35 AM55.4 °F53.6 °F94 %29.18 in2.0 miSouth (180°)33.4 mph43.7 mph0.02 inRainRain
6:55 AM55.4 °F53.6 °F94 %29.16 in2.0 miSouth (180°)34.5 mph43.7 mph0.03 inMist
7:15 AM55.4 °F53.6 °F94 %29.14 in1.5 miSouth (190°)33.4 mph48.3 mph0.02 inRainLight Rain
7:35 AM55.4 °F55.4 °F100 %29.12 in1.5 miSouth (190°)35.7 mph50.6 mph0.06 inRainRain
7:55 AM57.2 °F55.4 °F94 %29.11 in1.8 miSouth (190°)38.0 mph57.5 mph0.06 inMist
8:15 AM57.2 °F57.2 °F100 %29.12 in3.0 miSSW (210°)34.5 mph50.6 mphMist
8:35 AM57.2 °F55.4 °F94 %29.10 in4.0 miSSW (210°)28.8 mph46.0 mphMist
8:55 AM57.2 °F55.4 °F94 %29.09 in5.0 miSW (220°)33.4 mph46.0 mphMist
9:15 AM55.4 °F53.6 °F94 %29.10 in5.0 miSW (220°)31.1 mph44.9 mphMist
9:35 AM53.6 °F53.6 °F100 %29.10 in5.0 miSW (220°)31.1 mph48.3 mphMist
9:55 AM51.8 °F50.0 °F94 %29.11 in7.0 miSW (230°)35.7 mph47.2 mph
10:15 AM51.8 °F48.2 °F88 %29.12 in8.0 miSW (230°)36.8 mph49.5 mph
10:35 AM50.0 °F41.0 °F71 %29.14 in9.0 miWSW (240°)29.9 mph40.3 mph
10:55 AM50.0 °F39.2 °F66 %29.16 in10.0 miWSW (240°)33.4 mph52.9 mph
11:15 AM50.0 °F37.4 °F62 %29.17 in10.0 miWSW (240°)31.1 mph52.9 mph
11:35 AM48.2 °F35.6 °F62 %29.17 in10.0 miWSW (240°)33.4 mph43.7 mph
11:55 AM48.2 °F35.6 °F62 %29.18 in10.0 miWSW (250°)29.9 mph43.7 mph
12:15 PM46.4 °F35.6 °F66 %29.19 in10.0 miWSW (240°)21.9 mph33.4 mph
12:35 PM50.0 °F37.4 °F62 %29.20 in10.0 miWSW (250°)23.0 mph29.9 mph
12:55 PM50.0 °F37.4 °F62 %29.21 in10.0 miWSW (240°)16.1 mph25.3 mph
1:15 PM48.2 °F35.6 °F62 %29.23 in10.0 miWSW (240°)21.9 mph33.4 mph
1:35 PM48.2 °F33.8 °F58 %29.24 in10.0 miWSW (240°)25.3 mph32.2 mph
1:55 PM46.4 °F32.0 °F57 %29.25 in10.0 miWSW (240°)25.3 mph33.4 mph
2:15 PM46.4 °F32.0 °F57 %29.26 in10.0 miWSW (240°)23.0 mph34.5 mph
2:35 PM46.4 °F32.0 °F57 %29.29 in10.0 miWSW (250°)25.3 mph36.8 mph
2:55 PM44.6 °F32.0 °F61 %29.30 in10.0 miWSW (250°)23.0 mph35.7 mph
3:15 PM44.6 °F30.2 °F57 %29.32 in10.0 miWSW (250°)24.2 mph34.5 mph
3:35 PM44.6 °F30.2 °F57 %29.33 in10.0 miWSW (250°)26.5 mph35.7 mph
3:55 PM42.8 °F28.4 °F57 %29.35 in10.0 miWSW (240°)23.0 mph33.4 mph
4:15 PM41.0 °F28.4 °F61 %29.36 in10.0 miWSW (250°)21.9 mph34.5 mph
4:35 PM41.0 °F28.4 °F61 %29.38 in10.0 miWSW (250°)20.7 mph26.5 mph
4:55 PM41.0 °F26.6 °F57 %29.39 in10.0 miWSW (250°)18.4 mph25.3 mph
5:15 PM39.2 °F28.4 °F65 %29.41 in10.0 miWSW (250°)18.4 mph24.2 mph
5:35 PM39.2 °F26.6 °F61 %29.42 in10.0 miWSW (250°)24.2 mph31.1 mph
5:55 PM39.2 °F26.6 °F61 %29.44 in10.0 miWSW (250°)20.7 mph28.8 mph
6:15 PM39.2 °F26.6 °F61 %29.46 in10.0 miWSW (250°)20.7 mph
6:35 PM39.2 °F26.6 °F61 %29.47 in10.0 miWest (260°)19.6 mph27.6 mph
6:55 PM39.2 °F26.6 °F61 %29.47 in10.0 miWest (260°)20.7 mph27.6 mph
7:15 PM39.2 °F24.8 °F56 %29.49 in10.0 miWest (260°)20.7 mph27.6 mph
7:35 PM39.2 °F24.8 °F56 %29.50 in10.0 miWest (260°)17.3 mph26.5 mph
7:55 PM39.2 °F23.0 °F52 %29.51 in10.0 miWest (270°)18.4 mph
8:15 PM37.4 °F19.4 °F48 %29.52 in10.0 miWest (280°)19.6 mph26.5 mph
8:35 PM37.4 °F15.8 °F41 %29.53 in10.0 miWest (260°)21.9 mph34.5 mph
8:55 PM37.4 °F17.6 °F45 %29.55 in10.0 miWest (270°)24.2 mph32.2 mph
9:15 PM35.6 °F14.0 °F41 %29.56 in10.0 miWest (270°)26.5 mph36.8 mph
9:35 PM35.6 °F15.8 °F44 %29.57 in10.0 miWest (270°)26.5 mph33.4 mph
9:55 PM35.6 °F12.2 °F38 %29.58 in10.0 miWNW (290°)25.3 mph36.8 mph
10:15 PM33.8 °F14.0 °F44 %29.59 in10.0 miWest (270°)28.8 mph35.7 mph
10:35 PM33.8 °F14.0 °F44 %29.60 in10.0 miWest (270°)31.1 mph38.0 mph
10:55 PM32.0 °F12.2 °F44 %29.61 in10.0 miWest (270°)26.5 mph39.1 mph
11:15 PM32.0 °F14.0 °F48 %29.61 in10.0 miWest (270°)24.2 mph32.2 mph
11:35 PM32.0 °F10.4 °F41 %29.62 in10.0 miWest (270°)28.8 mph36.8 mph
11:55 PM32.0 °F10.4 °F41 %29.62 in10.0 miWest (270°)18.4 mph33.4 mph
Hourly data recorded from KFMH, located miles away from Forestdale, Massachusetts







STORIES FROM OUR PARTNERS